Retour au catalogue

ATLAS 5 CENTAUR DEB

LostHEO
NORAD 57588·DEBRIS·🇺🇸 United States

Lancé Oct 17, 2018 depuis Cape Canaveral Space Force Station

Loading…

Prochains Passages (prochaines 24 heures)

TLE

PériméSource: Space-Track

Époque: Jul 27, 2026, 03:19 UTC

1 57588U 18079HP  26208.13885941 -.00000098  00000-0  00000-0 0  9993
2 57588  13.2789  20.7540 4807103   3.1013 359.0205  1.88908979 22663

Suivez ATLAS 5 CENTAUR DEB en temps réel avec AllMySat

Download on the App Store